| time (UTC) | temp C | wind direction | speed KPH | gust KPH | rain 1hr cm | rain 24hr cm | rain mn cm | humidity % | barometer mb |
| 20260905133004 | 19 | 43 | 0.0 | 0.0 | 0.00 | 0.03 | 0.00 | 84 | 1014.4 |
| 20260905131504 | 18 | 43 | 0.0 | 0.0 | 0.00 | 0.03 | 0.00 | 87 | 1014.3 |
| 20260905130004 | 18 | 43 | 0.0 | 0.0 | 0.00 | 0.03 | 0.00 | 89 | 1014.4 |
| 20260905124507 | 17 | 43 | 0.0 | 0.0 | 0.00 | 0.03 | 0.00 | 92 | 1014.4 |
| 20260905123004 | 17 | 43 | 0.0 | 0.0 | 0.00 | 0.03 | 0.00 | 94 | 1014.4 |
| 20260905121504 | 16 | 43 | 0.0 | 0.0 | 0.00 | 0.03 | 0.00 | 95 | 1014.3 |
| 20260905120004 | 16 | 43 | 0.0 | 0.0 | 0.00 | 0.03 | 0.00 | 95 | 1014.2 |
| 20260905114503 | 16 | 43 | 0.0 | 0.0 | 0.00 | 0.03 | 0.00 | 95 | 1014.3 |
| 20260905113004 | 15 | 43 | 0.0 | 0.0 | 0.00 | 0.03 | 0.00 | 95 | 1014.1 |
| 20260905111506 | 15 | 43 | 0.0 | 0.0 | 0.00 | 0.03 | 0.00 | 94 | 1014.0 |
| 20260905110004 | 16 | 43 | 0.0 | 0.0 | 0.00 | 0.03 | 0.00 | 94 | 1014.0 |
| 20260905104504 | 16 | 43 | 0.0 | 0.0 | 0.00 | 0.03 | 0.00 | 94 | 1013.8 |
| 20260905103004 | 16 | 43 | 0.0 | 0.0 | 0.00 | 0.03 | 0.00 | 94 | 1013.7 |
| 20260905101504 | 16 | 43 | 0.0 | 0.0 | 0.00 | 0.03 | 0.00 | 94 | 1013.5 |
| 20260905100005 | 16 | 43 | 0.0 | 0.0 | 0.00 | 0.03 | 0.00 | 93 | 1013.4 |
| 20260905094504 | 17 | 43 | 0.0 | 0.0 | 0.00 | 0.03 | 0.00 | 93 | 1013.6 |
| 20260905093004 | 17 | 43 | 0.0 | 0.0 | 0.00 | 0.03 | 0.00 | 93 | 1013.4 |
| 20260905091504 | 17 | 43 | 0.0 | 0.0 | 0.00 | 0.03 | 0.00 | 93 | 1013.3 |
| 20260905090004 | 17 | 43 | 0.0 | 0.0 | 0.00 | 0.03 | 0.00 | 93 | 1013.2 |
| 20260905084504 | 17 | 43 | 0.0 | 0.0 | 0.00 | 0.03 | 0.00 | 93 | 1013.5 |
| 20260905083004 | 17 | 43 | 0.0 | 0.0 | 0.00 | 0.03 | 0.00 | 93 | 1013.5 |
| 20260905081505 | 17 | 43 | 0.0 | 0.0 | 0.00 | 0.03 | 0.00 | 93 | 1013.2 |
| 20260905080005 | 17 | 43 | 0.0 | 0.0 | 0.00 | 0.03 | 0.00 | 93 | 1013.1 |
| 20260905074505 | 17 | 43 | 0.0 | 0.0 | 0.00 | 0.03 | 0.00 | 93 | 1013.0 |
| 20260905073006 | 17 | 43 | 0.0 | 0.0 | 0.00 | 0.03 | 0.00 | 94 | 1012.9 |
| 20260905071505 | 17 | 43 | 0.0 | 0.0 | 0.00 | 0.03 | 0.00 | 94 | 1012.8 |
| 20260905070012 | 18 | 43 | 0.0 | 0.0 | 0.00 | 0.03 | 0.00 | 94 | 1012.9 |
| 20260905064505 | 18 | 43 | 0.0 | 0.0 | 0.00 | 0.03 | 0.00 | 94 | 1013.0 |
| 20260905063005 | 18 | 43 | 0.0 | 0.0 | 0.00 | 0.03 | 0.00 | 94 | 1013.1 |
| 20260905061506 | 18 | 43 | 0.0 | 0.0 | 0.00 | 0.03 | 0.00 | 93 | 1013.1 |
| 20260905060005 | 18 | 43 | 0.0 | 0.0 | 0.00 | 0.03 | 0.00 | 93 | 1013.2 |
| 20260905054505 | 18 | 43 | 0.0 | 0.0 | 0.00 | 0.03 | 0.00 | 93 | 1013.2 |
| 20260905053005 | 18 | 43 | 0.0 | 0.0 | 0.00 | 0.03 | 0.00 | 92 | 1013.2 |
| 20260905051515 | 18 | 43 | 0.0 | 0.0 | 0.00 | 0.03 | 0.00 | 92 | 1013.3 |
| 20260905050006 | 18 | 43 | 0.0 | 0.0 | 0.00 | 0.03 | 0.00 | 91 | 1013.5 |
| 20260905044508 | 18 | 43 | 0.0 | 0.0 | 0.00 | 0.03 | 0.00 | 91 | 1013.3 |
| 20260905043005 | 18 | 43 | 0.0 | 0.0 | 0.00 | 0.03 | 0.00 | 91 | 1013.4 |
| 20260905041506 | 18 | 43 | 0.0 | 0.0 | 0.00 | 0.03 | 0.00 | 92 | 1013.4 |
| 20260905040007 | 18 | 43 | 0.0 | 0.0 | 0.00 | 0.03 | 0.00 | 93 | 1013.4 |
| 20260905034510 | 19 | 43 | 0.0 | 0.0 | 0.00 | 0.03 | 0.03 | 94 | 1013.4 |
| 20260905033007 | 19 | 43 | 0.0 | 0.0 | 0.00 | 0.03 | 0.03 | 94 | 1013.5 |
| 20260905031507 | 20 | 43 | 0.0 | 0.0 | 0.00 | 0.03 | 0.03 | 94 | 1013.5 |
| 20260905030007 | 20 | 43 | 0.0 | 0.0 | 0.00 | 0.03 | 0.03 | 94 | 1013.6 |
| 20260905024508 | 19 | 43 | 0.0 | 0.0 | 0.00 | 0.03 | 0.03 | 94 | 1013.9 |
| 20260905023006 | 18 | 43 | 0.0 | 0.0 | 0.00 | 0.03 | 0.03 | 94 | 1014.0 |
| 20260905021505 | 18 | 43 | 0.0 | 0.0 | 0.00 | 0.03 | 0.03 | 93 | 1014.0 |
| 20260905020009 | 18 | 43 | 0.0 | 0.0 | 0.00 | 0.03 | 0.03 | 93 | 1013.8 |
| 20260905014507 | 18 | 43 | 0.0 | 0.0 | 0.00 | 0.03 | 0.03 | 92 | 1013.7 |
| 20260905013010 | 18 | 43 | 0.0 | 0.0 | 0.00 | 0.03 | 0.03 | 92 | 1013.6 |
| 20260905011513 | 18 | 43 | 0.0 | 0.0 | 0.00 | 0.03 | 0.03 | 91 | 1013.4 |
| 20260905010007 | 19 | 43 | 0.0 | 0.0 | 0.00 | 0.03 | 0.03 | 91 | 1013.6 |
| 20260905004506 | 19 | 43 | 0.0 | 0.0 | 0.00 | 0.03 | 0.03 | 90 | 1013.3 |
| 20260905003010 | 20 | 43 | 0.0 | 0.0 | 0.00 | 0.03 | 0.03 | 89 | 1013.0 |
| 20260905001510 | 20 | 43 | 0.0 | 0.0 | 0.00 | 0.03 | 0.03 | 89 | 1012.9 |
| 20260905000007 | 20 | 43 | 0.0 | 0.0 | 0.00 | 0.03 | 0.03 | 89 | 1012.9 |
| 20260904234506 | 21 | 43 | 0.0 | 0.0 | 0.00 | 0.03 | 0.03 | 88 | 1012.9 |
| 20260904233007 | 21 | 43 | 0.0 | 0.0 | 0.00 | 0.03 | 0.03 | 89 | 1013.1 |
| 20260904231510 | 21 | 43 | 0.0 | 0.0 | 0.00 | 0.03 | 0.03 | 90 | 1013.1 |
| 20260904230019 | 21 | 43 | 0.0 | 0.0 | 0.00 | 0.03 | 0.03 | 89 | 1012.9 |
| 20260904224506 | 21 | 43 | 0.0 | 0.0 | 0.00 | 0.03 | 0.03 | 88 | 1012.8 |
| 20260904223007 | 21 | 43 | 0.0 | 0.0 | 0.00 | 0.03 | 0.03 | 89 | 1012.8 |
| 20260904221507 | 21 | 43 | 0.0 | 0.0 | 0.00 | 0.03 | 0.03 | 88 | 1012.7 |
| 20260904220007 | 21 | 43 | 0.0 | 0.0 | 0.00 | 0.03 | 0.03 | 87 | 1012.4 |
| 20260904214507 | 22 | 43 | 1.6 | 4.8 | 0.00 | 0.20 | 0.03 | 87 | 1012.3 |
| 20260904213007 | 22 | 43 | 0.0 | 4.8 | 0.00 | 0.20 | 0.03 | 88 | 1012.0 |
| 20260904211510 | 22 | 43 | 0.0 | 3.2 | 0.00 | 0.20 | 0.03 | 88 | 1011.9 |
| 20260904210017 | 22 | 43 | 1.6 | 6.4 | 0.00 | 0.20 | 0.03 | 89 | 1012.0 |
| 20260904204507 | 22 | 354 | 0.0 | 3.2 | 0.00 | 0.71 | 0.03 | 89 | 1012.1 |
| 20260904203007 | 22 | 354 | 0.0 | 8.0 | 0.00 | 0.71 | 0.03 | 89 | 1012.2 |
| 20260904201507 | 22 | 348 | 0.0 | 6.4 | 0.00 | 0.71 | 0.03 | 89 | 1012.3 |
| 20260904200020 | 22 | 1 | 1.6 | 6.4 | 0.00 | 0.71 | 0.03 | 90 | 1012.2 |
| 20260904194507 | 22 | 1 | 0.0 | 8.0 | 0.00 | 0.76 | 0.03 | 90 | 1012.2 |
| 20260904193008 | 22 | 359 | 1.6 | 6.4 | 0.00 | 0.76 | 0.03 | 90 | 1012.3 |
| 20260904191514 | 22 | 3 | 1.6 | 6.4 | 0.00 | 0.76 | 0.03 | 90 | 1012.6 |
| 20260904190009 | 23 | 25 | 0.0 | 6.4 | 0.00 | 0.76 | 0.03 | 89 | 1012.7 |
| 20260904184509 | 22 | 352 | 0.0 | 6.4 | 0.00 | 0.76 | 0.03 | 91 | 1012.4 |
| 20260904183008 | 22 | 6 | 0.0 | 6.4 | 0.00 | 0.76 | 0.03 | 91 | 1012.6 |
| 20260904181509 | 23 | 160 | 0.0 | 6.4 | 0.00 | 0.76 | 0.03 | 89 | 1012.9 |
| 20260904180008 | 22 | 159 | 0.0 | 3.2 | 0.00 | 0.76 | 0.03 | 89 | 1013.1 |
| 20260904174511 | 22 | 159 | 0.0 | 3.2 | 0.00 | 0.76 | 0.03 | 91 | 1013.1 |
| 20260904173012 | 22 | 159 | 0.0 | 4.8 | 0.00 | 0.76 | 0.03 | 91 | 1013.4 |
| 20260904171507 | 22 | 160 | 1.6 | 4.8 | 0.00 | 0.76 | 0.03 | 93 | 1013.4 |
| 20260904170008 | 21 | 160 | 0.0 | 1.6 | 0.00 | 0.76 | 0.03 | 94 | 1013.7 |
| 20260904164509 | 21 | 160 | 0.0 | 4.8 | 0.00 | 0.76 | 0.03 | 95 | 1014.1 |
| 20260904163008 | 21 | 160 | 0.0 | 4.8 | 0.00 | 0.76 | 0.03 | 95 | 1014.2 |
| 20260904161510 | 20 | 160 | 0.0 | 3.2 | 0.00 | 0.76 | 0.03 | 96 | 1014.7 |
| 20260904160008 | 20 | 160 | 0.0 | 4.8 | 0.00 | 0.76 | 0.03 | 96 | 1015.0 |
| 20260904154509 | 20 | 160 | 0.0 | 3.2 | 0.00 | 0.76 | 0.03 | 97 | 1015.1 |
| 20260904153010 | 20 | 160 | 0.0 | 3.2 | 0.00 | 0.76 | 0.03 | 97 | 1015.3 |
| 20260904151508 | 20 | 160 | 0.0 | 3.2 | 0.00 | 0.76 | 0.03 | 97 | 1015.0 |
| 20260904150009 | 20 | 160 | 0.0 | 0.0 | 0.00 | 0.76 | 0.03 | 97 | 1015.0 |
| 20260904144509 | 20 | 160 | 0.0 | 3.2 | 0.03 | 0.76 | 0.03 | 98 | 1015.0 |
| 20260904143009 | 19 | 160 | 0.0 | 6.4 | 0.03 | 0.76 | 0.03 | 97 | 1014.7 |
| 20260904141509 | 19 | 294 | 1.6 | 4.8 | 0.03 | 0.76 | 0.03 | 97 | 1014.8 |
| 20260904140009 | 19 | 294 | 0.0 | 1.6 | 0.03 | 0.76 | 0.03 | 97 | 1014.9 |
| 20260904134508 | 18 | 294 | 0.0 | 0.0 | 0.00 | 0.71 | 0.00 | 98 | 1014.8 |